Location: Krasnoyarskiy Pitomnik
(51.1333°N, 71.6167°E)
Time: 09:23:05
(UTC+00:00)

Altair - Pass Details

Date: 21 April 2024
Orbit: 1501 x 1682 km, 47.2° (Epoch: 17 May)

Event Time Altitude Azimuth Distance (km) Brightness Sun altitude
Rises 13:06:23 0° 211° (SSW) 4,920 10.5 10.3°
Reaches altitude 10° 13:09:54 10° 203° (SSW) 3,926 9.9 9.8°
Maximum altitude 13:18:41 36° 142° (SE) 2,408 8.3 8.4°
Drops below altitude 10° 13:27:15 10° 81° (E) 3,840 9.0 7.1°
Sets 13:30:38 0° 73° (ENE) 4,802 9.5 6.6°
